FW8437 Weather Reports


time (UTC)temp
F
wind
direction
speed
knots
gust
knots
rain 1hr
in
rain 24hr
in
rain mn
in
humidity
%
barometer
mb
20260506222440 74 359 1.7 3.5 0.00 0.00 0.00 61 1019.6
20260506221418 73 359 0.9 3.5 0.00 0.00 0.00 62 1019.8
20260506220417 73 359 1.7 3.5 0.00 0.00 0.00 62 1020.0
20260506215430 73 359 0.9 4.3 0.00 0.00 0.00 61 1020.1
20260506214434 73 359 1.7 3.5 0.00 0.00 0.00 61 1020.3
20260506213430 74 359 0.0 3.5 0.00 0.00 0.00 58 1020.2
20260506212424 74 359 0.9 4.3 0.00 0.00 0.00 61 1020.4
20260506211424 73 359 1.7 3.5 0.00 0.00 0.00 61 1020.4
20260506210446 73 359 2.6 5.2 0.00 0.00 0.00 63 1020.4
20260506205424 73 359 1.7 5.2 0.00 0.00 0.00 63 1020.4
20260506204440 73 359 0.9 2.6 0.00 0.00 0.00 63 1020.6
20260506203419 72 359 0.9 7.0 0.00 0.00 0.00 64 1020.7
20260506202421 72 359 0.0 4.3 0.00 0.00 0.00 63 1020.7
20260506201441 72 359 1.7 4.3 0.00 0.00 0.00 64 1020.9
20260506200419 71 359 0.9 3.5 0.00 0.00 0.00 64 1021.0
20260506195418 71 359 0.9 3.5 0.00 0.00 0.00 65 1021.1
20260506194437 71 359 1.7 3.5 0.00 0.00 0.00 66 1021.2
20260506193419 71 359 0.9 5.2 0.00 0.00 0.00 66 1021.2
20260506192413 70 359 1.7 4.3 0.00 0.00 0.00 68 1021.5
20260506191413 69 359 1.7 3.5 0.00 0.00 0.00 67 1021.5
20260506190414 68 359 0.9 3.5 0.00 0.00 0.00 70 1021.5
20260506185414 68 359 1.7 7.0 0.00 0.00 0.00 70 1021.7
20260506184434 68 359 1.7 5.2 0.00 0.00 0.00 69 1021.6
20260506183414 68 359 0.9 4.3 0.00 0.00 0.00 70 1021.7
20260506182435 67 359 0.9 2.6 0.00 0.00 0.00 71 1021.6
20260506181433 67 359 1.7 4.3 0.00 0.00 0.00 70 1021.7
20260506180436 67 359 1.7 4.3 0.00 0.00 0.00 71 1021.6
20260506175417 66 359 0.9 3.5 0.00 0.00 0.00 73 1021.6
20260506174428 65 359 0.9 5.2 0.00 0.00 0.00 73 1021.7
20260506173411 65 359 0.9 3.5 0.00 0.00 0.00 74 1021.7
20260506172432 64 359 2.6 4.3 0.00 0.00 0.00 74 1021.8
20260506171413 63 359 0.9 2.6 0.00 0.00 0.00 77 1021.8
20260506170434 62 359 0.9 2.6 0.00 0.00 0.00 77 1021.9
20260506165417 62 359 0.9 3.5 0.00 0.00 0.00 78 1021.8
20260506164418 61 359 0.9 2.6 0.00 0.00 0.00 79 1021.8
20260506163414 60 359 0.9 1.7 0.00 0.00 0.00 81 1021.9
20260506162430 60 359 0.9 2.6 0.00 0.00 0.00 82 1022.0
20260506161413 60 359 0.9 2.6 0.00 0.00 0.00 83 1021.8
20260506160413 59 359 0.9 2.6 0.00 0.00 0.00 84 1021.8
20260506155424 58 359 0.0 1.7 0.00 0.00 0.00 85 1021.9
20260506154417 57 359 0.9 2.6 0.00 0.00 0.00 85 1021.9
20260506153417 57 359 0.9 2.6 0.00 0.00 0.00 85 1021.8
20260506152419 57 359 0.9 1.7 0.00 0.00 0.00 86 1021.7
20260506151418 57 359 0.0 1.7 0.00 0.00 0.00 87 1021.8
20260506150414 56 359 0.0 0.9 0.00 0.00 0.00 88 1021.8
20260506145413 56 359 0.9 2.6 0.00 0.00 0.00 89 1021.7
20260506144412 56 359 0.0 0.0 0.00 0.00 0.00 89 1021.7
20260506143429 55 359 0.0 0.9 0.00 0.00 0.00 90 1021.6
20260506142428 55 359 0.0 0.9 0.00 0.00 0.00 90 1021.5
20260506141422 55 359 0.0 0.0 0.00 0.00 0.00 90 1021.5
20260506140423 55 359 0.0 0.0 0.00 0.00 0.00 90 1021.2
20260506135425 55 359 0.0 0.0 0.00 0.00 0.00 90 1021.2
20260506134419 54 359 0.0 0.0 0.00 0.00 0.00 89 1021.1
20260506133418 55 359 0.0 0.0 0.00 0.00 0.00 89 1021.1
20260506132413 55 359 0.0 0.0 0.00 0.00 0.00 89 1021.0
20260506131411 55 359 0.0 0.0 0.00 0.00 0.00 88 1021.0
20260506130412 55 359 0.0 0.0 0.00 0.00 0.00 88 1020.8
20260506125412 55 359 0.0 0.0 0.00 0.00 0.00 88 1020.8
20260506124415 55 359 0.0 0.0 0.00 0.00 0.00 88 1020.8
20260506123415 55 359 0.0 0.0 0.00 0.00 0.00 87 1020.8
20260506122425 55 359 0.0 0.0 0.00 0.00 0.00 87 1020.8
20260506121424 55 359 0.0 0.9 0.00 0.00 0.00 87 1020.8
20260506120419 55 359 0.0 0.9 0.00 0.00 0.00 87 1020.7
20260506115419 55 359 0.0 0.9 0.00 0.00 0.00 87 1020.7
20260506114418 55 359 0.0 0.0 0.00 0.00 0.00 87 1020.5
20260506113414 55 359 0.0 0.0 0.00 0.00 0.00 87 1020.5
20260506112427 55 359 0.0 0.0 0.00 0.00 0.00 87 1020.4
20260506111420 55 359 0.0 0.0 0.00 0.00 0.00 87 1020.3
20260506110420 55 359 0.0 0.0 0.00 0.00 0.00 87 1020.3
20260506105421 55 359 0.0 0.0 0.00 0.00 0.00 86 1020.2
20260506104417 55 359 0.0 0.0 0.00 0.00 0.00 86 1020.2
20260506103417 55 359 0.0 0.0 0.00 0.00 0.00 86 1020.1
20260506102418 55 359 0.0 0.9 0.00 0.00 0.00 86 1020.0
20260506101438 55 359 0.0 0.9 0.00 0.00 0.00 85 1019.9
20260506100418 55 359 0.0 0.9 0.00 0.00 0.00 85 1019.9
20260506095418 55 359 0.0 0.9 0.00 0.02 0.00 85 1020.1
20260506094411 55 359 0.0 0.9 0.00 0.02 0.00 85 1020.1
20260506093433 55 359 0.0 0.9 0.00 0.02 0.00 84 1020.1
20260506092434 55 359 0.0 1.7 0.00 0.02 0.00 84 1020.2
20260506091434 55 359 0.0 1.7 0.00 0.02 0.00 84 1020.1
20260506090425 55 359 0.0 0.9 0.00 0.02 0.00 84 1020.1
20260506085426 55 359 0.0 0.9 0.00 0.06 0.00 84 1020.2
20260506084428 55 359 0.0 1.7 0.00 0.06 0.00 84 1020.1
20260506083449 55 359 0.9 1.7 0.00 0.06 0.00 84 1020.1
20260506082423 55 359 0.9 1.7 0.00 0.06 0.00 84 1020.1
20260506081422 55 359 0.0 0.9 0.00 0.06 0.00 84 1020.2
20260506080421 55 359 0.0 1.7 0.00 0.06 0.00 84 1020.2
20260506073413 55 359 0.0 2.6 0.00 0.11 0.00 83 1019.9
20260506072416 55 359 0.0 1.7 0.00 0.11 0.00 83 1019.9
20260506071414 55 359 0.0 2.6 0.00 0.11 0.00 83 1019.8
20260506070438 55 359 0.9 4.3 0.00 0.11 0.00 83 1019.7
20260506062434 56 359 0.0 3.5 0.00 0.15 1.10 83 1019.3
20260506061430 56 359 0.0 1.7 0.00 0.15 1.10 84 1019.3
20260506060429 56 359 0.9 1.7 0.00 0.15 1.10 84 1019.2
20260506051416 56 359 0.0 1.7 0.00 0.20 1.10 87 1019.0
20260506044438 56 359 0.9 2.6 0.00 0.26 1.10 87 1018.7
20260506043413 56 359 0.0 4.3 0.00 0.26 1.10 87 1018.5
20260506042429 56 359 0.9 4.3 0.00 0.26 1.10 87 1018.5
20260506041455 56 359 0.0 2.6 0.00 0.26 1.10 86 1018.4
20260506040434 56 359 0.0 2.6 0.00 0.26 1.10 86 1018.3
20260506035431 57 359 0.0 1.7 0.00 0.28 1.10 85 1018.2
20260506034425 57 359 0.0 1.7 0.00 0.28 1.10 85 1018.1
20260506033424 57 359 0.0 1.7 0.00 0.28 1.10 85 1017.9
20260506032422 57 359 0.9 2.6 0.00 0.28 1.10 84 1017.6
20260506031415 57 359 0.9 2.6 0.00 0.28 1.10 84 1017.5
20260506030417 58 359 0.9 3.5 0.00 0.28 1.10 84 1017.4
20260506025414 58 359 1.7 4.3 0.00 0.29 1.10 83 1017.3
20260506024416 58 359 2.6 7.0 0.00 0.29 1.10 82 1017.3
20260506023413 59 359 1.7 5.2 0.00 0.29 1.10 82 1017.3
20260506022436 59 359 1.7 4.3 0.00 0.29 1.10 81 1017.3
20260506021430 59 359 0.9 3.5 0.00 0.29 1.10 80 1017.1
20260506020425 60 359 0.9 4.3 0.00 0.29 1.10 80 1016.9
20260506015421 60 359 0.9 5.2 0.00 0.29 1.10 79 1016.8
20260506014421 60 359 0.9 4.3 0.00 0.29 1.10 79 1016.7
20260506013421 60 359 1.7 3.5 0.00 0.29 1.10 79 1016.7
20260506012442 60 359 1.7 7.8 0.00 0.29 1.10 78 1016.7
20260506011419 61 359 2.6 7.0 0.00 0.29 1.10 78 1016.7
20260506010419 61 359 0.9 5.2 0.00 0.29 1.10 78 1016.7
20260506005417 61 359 0.9 5.2 0.00 0.29 1.10 77 1016.7
20260506004413 61 359 1.7 7.0 0.00 0.29 1.10 77 1016.6
20260506003413 62 359 1.7 7.0 0.00 0.29 1.10 77 1016.5
20260506002414 62 359 2.6 7.8 0.00 0.29 1.10 76 1016.5
20260506001430 62 359 0.9 5.2 0.00 0.29 1.10 77 1016.4
20260506000431 61 359 2.6 7.0 0.00 0.29 1.10 77 1016.3
20260505235431 61 359 1.7 4.3 0.00 0.29 1.10 78 1016.3
20260505234426 61 359 1.7 7.0 0.00 0.29 1.10 78 1016.4
20260505233426 62 359 2.6 8.7 0.00 0.29 1.10 79 1016.4
20260505232426 62 359 1.7 5.2 0.00 0.29 1.10 78 1016.5
20260505231420 62 359 2.6 7.0 0.00 0.29 1.10 78 1016.4
20260505230420 63 359 2.6 7.8 0.00 0.29 1.10 77 1016.4
20260505225419 63 359 0.0 5.2 0.00 0.29 1.10 77 1016.4
20260505224420 63 359 0.9 3.5 0.00 0.29 1.10 77 1016.4
20260505223420 63 359 2.6 5.2 0.00 0.29 1.10 75 1016.5